• In Hungary
  • List of Countries
  • For 7 days
  • Water Temperature
  • Satellite Maps
  • Weather Map
  • News
  • Weather Widgets
  • user-avatar
    Login

    Hourly Weather Wydrze

    Today, 21 January, Sunday

    Time Temperature Precipitation Wind Pressure Humidity
    00:00 -3°C° 0 mm 2 mps 737 mmHg 90%
    01:00 -2°C° 0 mm 1 mps 736 mmHg 91%
    02:00 -2°C° 0 mm 1 mps 736 mmHg 91%
    03:00 -2°C° 0 mm 1 mps 736 mmHg 92%
    04:00 -4°C° 0 mm 2 mps 736 mmHg 92%
    05:00 -4°C° 0 mm 2 mps 736 mmHg 92%
    06:00 -4°C° 0 mm 2 mps 736 mmHg 92%
    07:00 -1°C° 0 mm 1 mps 736 mmHg 92%
    08:00 -1°C° 0.1 mm 1 mps 737 mmHg 91%
    09:00 -2°C° 0.1 mm 2 mps 737 mmHg 89%
    10:00 -1°C° 0.1 mm 2 mps 737 mmHg 87%
    11:00 -1°C° 0.3 mm 2 mps 737 mmHg 88%
    12:00 -1°C° 0.3 mm 2 mps 737 mmHg 89%
    13:00 -1°C° 0.3 mm 2 mps 738 mmHg 89%
    14:00 -1°C° 0.4 mm 2 mps 738 mmHg 91%
    15:00 -1°C° 0.4 mm 2 mps 738 mmHg 93%
    16:00 -2°C° 0.4 mm 2 mps 739 mmHg 95%
    17:00 -2°C° 0.4 mm 3 mps 739 mmHg 94%
    18:00 -2°C° 0.4 mm 3 mps 740 mmHg 94%
    19:00 -3°C° 0.4 mm 4 mps 740 mmHg 94%
    20:00 -3°C° 0.3 mm 4 mps 741 mmHg 93%
    21:00 -4°C° 0.3 mm 4 mps 741 mmHg 93%
    22:00 -4°C° 0.3 mm 4 mps 742 mmHg 92%
    23:00 -4°C° 0.1 mm 4 mps 742 mmHg 92%

    Tomorrow, 22 January, Monday

    Time Temperature Precipitation Wind Pressure Humidity
    00:00 -4°C° 0.1 mm 4 mps 743 mmHg 92%
    01:00 -5°C° 0.1 mm 4 mps 743 mmHg 92%
    02:00 -5°C° 0 mm 4 mps 743 mmHg 92%
    03:00 -5°C° 0 mm 3 mps 744 mmHg 91%
    04:00 -5°C° 0 mm 3 mps 744 mmHg 91%
    05:00 -5°C° 0 mm 3 mps 744 mmHg 91%
    06:00 -6°C° 0 mm 3 mps 744 mmHg 92%
    07:00 -6°C° 0 mm 3 mps 744 mmHg 92%
    08:00 -5°C° 0 mm 2 mps 745 mmHg 90%
    09:00 -4°C° 0 mm 2 mps 745 mmHg 89%
    10:00 -4°C° 0 mm 2 mps 745 mmHg 87%
    11:00 -4°C° 0 mm 2 mps 745 mmHg 85%
    12:00 -3°C° 0 mm 2 mps 745 mmHg 83%
    13:00 -3°C° 0 mm 2 mps 745 mmHg 81%
    14:00 -3°C° 0 mm 2 mps 745 mmHg 82%
    15:00 -4°C° 0 mm 2 mps 745 mmHg 84%
    16:00 -4°C° 0 mm 2 mps 745 mmHg 86%
    17:00 -4°C° 0 mm 2 mps 745 mmHg 87%
    18:00 -4°C° 0 mm 2 mps 746 mmHg 88%
    19:00 -4°C° 0 mm 2 mps 746 mmHg 89%
    20:00 -5°C° 0 mm 2 mps 746 mmHg 90%
    21:00 -5°C° 0 mm 2 mps 746 mmHg 91%
    22:00 -6°C° 0 mm 2 mps 746 mmHg 93%
    23:00 -6°C° 0 mm 2 mps 747 mmHg 93%

    Day after tomorrow, 23 January, Tuesday

    Time Temperature Precipitation Wind Pressure Humidity
    00:00 -6°C° 0 mm 2 mps 747 mmHg 93%
    01:00 -6°C° 0 mm 2 mps 747 mmHg 94%
    02:00 -6°C° 0 mm 2 mps 747 mmHg 94%
    03:00 -6°C° 0 mm 2 mps 747 mmHg 94%
    04:00 -6°C° 0 mm 2 mps 747 mmHg 94%
    05:00 -7°C° 0 mm 2 mps 748 mmHg 93%
    06:00 -7°C° 0 mm 2 mps 748 mmHg 93%
    07:00 -7°C° 0 mm 2 mps 748 mmHg 93%
    08:00 -6°C° 0 mm 2 mps 748 mmHg 90%
    09:00 -6°C° 0 mm 3 mps 749 mmHg 87%
    10:00 -5°C° 0 mm 3 mps 749 mmHg 84%
    11:00 -4°C° 0 mm 3 mps 750 mmHg 83%
    12:00 -2°C° 0 mm 3 mps 750 mmHg 82%
    13:00 -2°C° 0 mm 3 mps 750 mmHg 80%
    14:00 -2°C° 0 mm 2 mps 750 mmHg 83%
    15:00 -3°C° 0 mm 2 mps 751 mmHg 86%
    16:00 -4°C° 0 mm 2 mps 751 mmHg 88%
    17:00 -4°C° 0 mm 2 mps 751 mmHg 89%
    18:00 -5°C° 0 mm 2 mps 752 mmHg 89%
    19:00 -5°C° 0 mm 2 mps 752 mmHg 90%
    20:00 -5°C° 0 mm 2 mps 752 mmHg 90%
    21:00 -5°C° 0 mm 2 mps 753 mmHg 90%
    22:00 -5°C° 0 mm 2 mps 753 mmHg 89%
    23:00 -6°C° 0 mm 3 mps 753 mmHg 89%

    24 January, Wednesday

    Time Temperature Precipitation Wind Pressure Humidity
    00:00 -6°C° 0 mm 3 mps 753 mmHg 89%
    01:00 -5°C° 0 mm 3 mps 753 mmHg 88%
    02:00 -5°C° 0 mm 3 mps 753 mmHg 88%
    03:00 -5°C° 0 mm 3 mps 753 mmHg 88%
    04:00 -5°C° 0 mm 3 mps 753 mmHg 88%
    05:00 -5°C° 0 mm 4 mps 753 mmHg 88%
    06:00 -5°C° 0 mm 4 mps 753 mmHg 87%
    07:00 -5°C° 0 mm 4 mps 753 mmHg 87%
    08:00 -5°C° 0 mm 5 mps 753 mmHg 85%
    09:00 -4°C° 0 mm 5 mps 753 mmHg 83%
    10:00 -2°C° 0 mm 5 mps 753 mmHg 81%
    11:00 -2°C° 0 mm 5 mps 753 mmHg 81%
    12:00 -1°C° 0 mm 5 mps 753 mmHg 80%
    13:00 -1°C° 0 mm 5 mps 753 mmHg 80%
    14:00 -1°C° 0 mm 5 mps 752 mmHg 81%
    15:00 -2°C° 0 mm 5 mps 752 mmHg 81%
    16:00 -2°C° 0 mm 5 mps 752 mmHg 82%
    17:00 -2°C° 0 mm 5 mps 752 mmHg 82%
    18:00 -2°C° 0 mm 5 mps 752 mmHg 83%
    19:00 -4°C° 0 mm 6 mps 752 mmHg 83%
    20:00 -3°C° 0 mm 6 mps 752 mmHg 83%
    21:00 -3°C° 0 mm 6 mps 752 mmHg 84%
    22:00 -3°C° 0 mm 6 mps 752 mmHg 84%
    23:00 -3°C° 0 mm 6 mps 752 mmHg 84%

    25 January, Thursday

    Time Temperature Precipitation Wind Pressure Humidity
    00:00 -3°C° 0 mm 6 mps 751 mmHg 84%
    01:00 -3°C° 0 mm 6 mps 751 mmHg 84%
    02:00 -3°C° 0 mm 6 mps 751 mmHg 84%
    03:00 -3°C° 0 mm 6 mps 751 mmHg 84%
    04:00 -3°C° 0 mm 6 mps 750 mmHg 84%
    05:00 -3°C° 0 mm 6 mps 750 mmHg 84%
    06:00 -2°C° 0 mm 5 mps 750 mmHg 84%
    07:00 -2°C° 0 mm 5 mps 750 mmHg 83%
    08:00 -2°C° 0 mm 5 mps 749 mmHg 82%
    09:00 -1°C° 0 mm 5 mps 749 mmHg 80%
    10:00 -2°C° 0 mm 6 mps 749 mmHg 78%
    11:00 0°C° 0 mm 5 mps 749 mmHg 76%
    12:00 0°C° 0 mm 5 mps 748 mmHg 75%
    13:00 +1°C° 0 mm 5 mps 748 mmHg 74%
    14:00 0°C° 0 mm 5 mps 748 mmHg 74%
    15:00 0°C° 0 mm 4 mps 747 mmHg 73%
    16:00 -1°C° 0 mm 4 mps 747 mmHg 73%
    17:00 -1°C° 0 mm 4 mps 747 mmHg 72%
    18:00 -1°C° 0 mm 4 mps 747 mmHg 71%
    19:00 -2°C° 0 mm 4 mps 747 mmHg 71%
    20:00 -2°C° 0 mm 4 mps 747 mmHg 70%
    21:00 -2°C° 0 mm 4 mps 747 mmHg 70%
    22:00 -2°C° 0 mm 4 mps 747 mmHg 69%
    23:00 -2°C° 0 mm 4 mps 747 mmHg 70%

    26 January, Friday

    Time Temperature Precipitation Wind Pressure Humidity
    00:00 -2°C° 0 mm 4 mps 746 mmHg 70%
    01:00 -2°C° 0 mm 4 mps 746 mmHg 71%
    02:00 -2°C° 0 mm 4 mps 746 mmHg 71%
    03:00 -2°C° 0 mm 4 mps 746 mmHg 71%
    04:00 -2°C° 0 mm 4 mps 745 mmHg 71%
    05:00 -2°C° 0 mm 4 mps 745 mmHg 71%
    06:00 -2°C° 0 mm 4 mps 745 mmHg 70%
    07:00 -2°C° 0 mm 4 mps 745 mmHg 69%
    08:00 -1°C° 0 mm 5 mps 745 mmHg 68%
    09:00 0°C° 0 mm 5 mps 745 mmHg 67%
    10:00 +1°C° 0 mm 5 mps 745 mmHg 66%
    11:00 +1°C° 0 mm 5 mps 745 mmHg 68%
    12:00 +2°C° 0 mm 5 mps 744 mmHg 69%
    13:00 +3°C° 0 mm 4 mps 744 mmHg 71%
    14:00 +3°C° 0 mm 4 mps 744 mmHg 72%
    15:00 +1°C° 0 mm 4 mps 744 mmHg 74%
    16:00 0°C° 0 mm 4 mps 744 mmHg 75%
    17:00 0°C° 0 mm 4 mps 744 mmHg 74%
    18:00 0°C° 0 mm 4 mps 744 mmHg 72%
    19:00 0°C° 0 mm 4 mps 745 mmHg 71%
    20:00 0°C° 0 mm 4 mps 745 mmHg 70%
    21:00 0°C° 0 mm 4 mps 745 mmHg 69%
    22:00 0°C° 0 mm 4 mps 745 mmHg 68%
    23:00 0°C° 0 mm 4 mps 745 mmHg 69%
    Show more